SL-14 DEB, 45270

Orbit data source: Space-Track

SL-14 DEB, 45270 is space debris in LEO originally from a launch on Thu, 15 Aug 1991 UTC launched from the Plesetsk Missile And Space Complex (PKMTR). Debris objects in space refer to the collection of defunct objects orbiting the Earth. Examples of debris include non-operational satellites, rocket bodies, and fragments generated from explosions, collisions, or faulty payload assembly.

Loading next visibility...
Identifier
45270, 1991-056G
Orbit
LEO
Last TLE update
11 hours ago
Origin
Manufacturer
Unknown
Mission
Spacecraft
Bus & Motor
Unknown
Mass
Unknown
Launch date (UTC)
1991-08-15 (34 years ago)
Launch vehicle
Unknown
Launch site
Plesetsk Missile And Space Complex (PKMTR)
Object type
Payload
Rocket body
Debris
Shape & HBR
Unknown
Radar Cross Section
Small (<0.1 m²)

Expand to show TLE details & history

TLE from 11 hours ago
0 SL-14 DEB
1 45270U 91056G   25186.51530479  .00000102  00000-0  21467-3 0  9991
2 45270  82.5679  14.4318 0031951 195.9885 164.0235 13.22318154260236
Epoch: 2025-07-05T12:22Z
TLE epoch observation values (Epoch: 2025-07-05T12:22:02.333Z)
Latitude
-0.00004°
Longitude
-94.83017°
Altitude
1,201.907 km
Speed
7.242 km/s
True Right ascension
00h 57m 43s
True Declination
0° 00' 00"
Sunlit
Object was in daylight at epoch
Visualization orbit readout
Latitude
29.27342°
Longitude
-90.98558°
Altitude
1,202.794 km
Speed
7.244 km/s
Apparent Right ascension
00h 25m 37s
Apparent Declination
-1° 57' 30"
Sunlit
Object is in daylight
Visualization observer readout
Local Sidereal Time
11:21:05
Azimuth
334.787° NNW
Elevation
-49.312°
Doppler factor
1
Orbital elements
Apogee altitude
1,197.242 km
Perigee altitude
1,148.988 km
Semi-major axis
7,551.252 km
Eccentricity
0.0032
Inclination
82.5679°
RAAN
14.4318°
Arg. of periapsis
195.9885°
True anomaly
Unknown
Mean anomaly
164.0235°
Eccentric anomaly
Unknown
Mean motion
3.30761 °/min
Orbital period
108.84 mins
BSTAR
0.00021467
Loading maneuver chart data...
Loading SW <> Apogee altitude chart data...
Loading historical data...
Loading historical data...
Loading historical data...
Loading historical data...
Loading historical data...
Loading historical data...
Loading historical data...

SL-14 DEB Visibility forecast

Observer location: undefined°, undefined°

Span
Click to sort rows by Start time (UTC) header in descending order
Start Az.
Max El. time (UTC)
Max El. Az.
Max El.
End time (UTC)
End Az.
12 mins2025-07-05 23:51:44.190Z5.004° NNE2025-07-05 23:57:44.190Z76.026° E37.656°2025-07-06 00:03:44.190Z149.485° SSE
10 mins2025-07-06 01:42:44.190Z321.946° NNW2025-07-06 01:46:44.190Z280.848° WNW24.621°2025-07-06 01:52:44.190Z221.646° SW
10 mins2025-07-06 12:05:44.190Z135.581° SSE2025-07-06 12:10:44.190Z84.298° E25.938°2025-07-06 12:15:44.190Z33.915° NE
12 mins2025-07-06 13:54:44.190Z214.257° SW2025-07-06 13:59:44.190Z274.17° WNW37.161°2025-07-06 14:06:44.190Z356.177° N
|